Back to catalog

THOR ABLESTAR DEB

AliveLEO
NORAD 463·DEBRIS·🇺🇸 United States

Launched Jun 29, 1961 from Cape Canaveral Space Force Station

Loading…

Next Passes (next 24 hours)

TLE

FreshSource: Space-Track

Epoch: Sep 14, 2026, 03:37 UTC

1 00463U 61015EZ  26257.15104865  .00001538  00000-0  35330-3 0  9992
2 00463  66.7653 166.1784 0046143 196.2969 163.6664 14.57652577382094

Track THOR ABLESTAR DEB in real time with AllMySat

Download on the App Store